Weather History for Black River Falls, WI

Change the Weather History Date:

Saturday, August 17, 2013

  Actual Average (KLSE) Record (KLSE)
Temperature  
Mean Temperature 63 °F 72 °F  
Max Temperature 83 °F 82 °F 103 °F (1988)
Min Temperature 43 °F 62 °F 48 °F (1981)
Degree Days  
Heating Degree Days 2 0  
Month to date heating degree days 0  
Since 1 June heating degree days 43  
Since 1 July heating degree days 5  
Cooling Degree Days 0 7  
Month to date cooling degree days 130  
Year to date cooling degree days 617  
Since 1 June cooling degree days 569  
Growing Degree Days 13 (Base 50)    
Moisture  
Dew Point 51 °F    
Average Humidity 71    
Maximum Humidity 100    
Minimum Humidity 30    
Precipitation  
Precipitation 0.00 in 0.15 in 1.43 in (1881)
Month to date precipitation 2.45  
Year to date precipitation 22.12  
Snow  
Snow 0.00 in 0.00 in - ()
Month to date snowfall 0.0  
Since 1 June snowfall 0.0  
Since 1 July snowfall 0.0  
Snow Depth -    
Sea Level Pressure  
Sea Level Pressure 30.20 in    
Wind  
Wind Speed 1 mph (WSW)    
Max Wind Speed 9 mph    
Max Gust Speed -    
Visibility 9 miles    
Events Fog    
T = Trace of Precipitation, MM = Missing Value Source: NWS Daily Summary

Daily Weather History Graph

Daily Weather History Graph

Search for Another Location

Airport:

Trip Planner

Search our weather history database for the weather conditions in past years. The results will help you decide how hot, cold, wet, or windy it might be!

Date:

Astronomy

Aug. 17, 2013 Rise Set
Actual Time 6:09 AM CDT 8:04 PM CDT
Civil Twilight 5:38 AM CDT 8:35 PM CDT
Nautical Twilight 4:59 AM CDT 9:13 PM CDT
Astronomical Twilight 4:18 AM CDT 9:55 PM CDT
Moon 5:23 PM CDT (8/17) 2:08 AM CDT (8/17)
Length of Visible Light 14h 57m
Length of Day
13h 55m
Waxing Gibbous, 84% of the Moon is Illuminated
Aug 17
Waxing Gibbous
Aug 20
Full
Aug 28
Last Quarter
Sep 5
New
Sep 12
First Quarter

Hourly Weather History & Observations

Time (CDT) Temp. Dew Point Humidity Pressure Visibility Wind Dir Wind Speed Gust Speed Precip Events Conditions
12:15 AM 50.2 °F 50.2 °F 100% 30.20 in 10.0 mi Calm Calm - N/A   Clear
12:35 AM 49.1 °F 49.1 °F 100% 30.20 in 10.0 mi Calm Calm - N/A   Clear
12:55 AM 49.5 °F 49.5 °F 100% 30.20 in 10.0 mi Calm Calm - N/A   Clear
1:15 AM 48.4 °F 48.4 °F 100% 30.21 in 10.0 mi Calm Calm - N/A   Clear
1:35 AM 47.7 °F 47.7 °F 100% 30.21 in 10.0 mi Calm Calm - N/A   Clear
1:55 AM 47.8 °F 47.8 °F 100% 30.20 in 10.0 mi Calm Calm - N/A   Clear
2:15 AM 46.9 °F 46.9 °F 100% 30.21 in 10.0 mi Calm Calm - N/A   Clear
2:35 AM 46.9 °F 46.9 °F 100% 30.21 in 10.0 mi Calm Calm - N/A   Clear
2:55 AM 46.4 °F 46.4 °F 100% 30.21 in 10.0 mi Calm Calm - N/A   Clear
3:15 AM 45.7 °F 45.7 °F 100% 30.21 in 10.0 mi Calm Calm - N/A   Clear
3:35 AM 45.9 °F 45.9 °F 100% 30.22 in 10.0 mi Calm Calm - N/A   Clear
3:55 AM 45.5 °F 45.5 °F 100% 30.22 in 10.0 mi Calm Calm - N/A   Clear
4:15 AM 45.0 °F 45.0 °F 100% 30.22 in 10.0 mi Calm Calm - N/A   Clear
4:35 AM 44.6 °F 44.6 °F 100% 30.22 in 10.0 mi Calm Calm - N/A   Clear
4:55 AM 44.4 °F 44.4 °F 100% 30.23 in 10.0 mi Calm Calm - N/A   Clear
5:15 AM 43.7 °F 43.7 °F 100% 30.23 in 10.0 mi Calm Calm - N/A   Scattered Clouds
5:35 AM 43.9 °F 43.9 °F 100% 30.23 in 10.0 mi Calm Calm - N/A   Scattered Clouds
5:55 AM 43.9 °F 43.9 °F 100% 30.23 in 10.0 mi Calm Calm - N/A   Mostly Cloudy
6:15 AM 43.7 °F 43.7 °F 100% 30.23 in 0.8 mi Calm Calm - N/A   Overcast
6:35 AM 43.7 °F 43.7 °F 100% 30.24 in 1.0 mi Calm Calm - N/A   Overcast
6:55 AM 44.8 °F 44.8 °F 100% 30.24 in 0.2 mi Calm Calm - N/A Fog Fog
7:15 AM 47.1 °F 47.1 °F 100% 30.24 in 0.2 mi Calm Calm - N/A Fog Fog
7:35 AM 51.3 °F 51.3 °F 100% 30.24 in 7.0 mi Calm Calm - N/A   Scattered Clouds
7:55 AM 54.5 °F 54.5 °F 100% 30.25 in 10.0 mi Calm Calm - N/A   Clear
8:15 AM 56.8 °F 55.9 °F 97% 30.25 in 10.0 mi Calm Calm - N/A   Clear
8:35 AM 60.3 °F 56.5 °F 87% 30.25 in 10.0 mi Calm Calm - N/A   Clear
8:55 AM 63.0 °F 55.2 °F 76% 30.24 in 10.0 mi Calm Calm - N/A   Clear
9:15 AM 66.4 °F 55.6 °F 68% 30.24 in 10.0 mi Calm Calm - N/A   Clear
9:35 AM 69.4 °F 56.3 °F 63% 30.24 in 10.0 mi Calm Calm - N/A   Clear
9:55 AM 70.9 °F 55.6 °F 58% 30.24 in 10.0 mi Calm Calm - N/A   Clear
10:15 AM 72.9 °F 55.0 °F 53% 30.24 in 10.0 mi Calm Calm - N/A   Clear
10:35 AM 74.7 °F 54.7 °F 50% 30.24 in 10.0 mi Calm Calm - N/A   Clear
10:55 AM 75.6 °F 54.5 °F 48% 30.24 in 10.0 mi South 3.5 mph - N/A   Clear
11:15 AM 77.5 °F 51.6 °F 40% 30.23 in 10.0 mi WSW 3.5 mph - N/A   Clear
11:35 AM 78.4 °F 51.8 °F 39% 30.23 in 10.0 mi South 3.5 mph - N/A   Clear
11:55 AM 78.4 °F 49.3 °F 36% 30.23 in 10.0 mi West 5.8 mph - N/A   Clear
12:15 PM 78.1 °F 48.0 °F 35% 30.22 in 10.0 mi WSW 4.6 mph - N/A   Scattered Clouds
12:35 PM 78.8 °F 48.6 °F 34% 30.22 in 10.0 mi West 6.9 mph - N/A   Clear
12:55 PM 79.3 °F 48.4 °F 34% 30.21 in 10.0 mi West 4.6 mph - N/A   Clear
1:15 PM 81.1 °F 49.1 °F 33% 30.21 in 10.0 mi West 5.8 mph - N/A   Scattered Clouds
1:35 PM 78.4 °F 49.5 °F 36% 30.20 in 10.0 mi Calm Calm - N/A   Mostly Cloudy
1:55 PM 81.7 °F 49.5 °F 32% 30.20 in 10.0 mi WSW 6.9 mph - N/A   Mostly Cloudy
2:15 PM 80.6 °F 49.8 °F 34% 30.19 in 10.0 mi West 4.6 mph - N/A   Mostly Cloudy
2:35 PM 82.6 °F 48.2 °F 30% 30.19 in 10.0 mi SSW 9.2 mph - N/A   Scattered Clouds
2:55 PM 82.8 °F 48.6 °F 30% 30.18 in 10.0 mi SW 9.2 mph - N/A   Scattered Clouds
3:15 PM 82.8 °F 48.7 °F 30% 30.18 in 10.0 mi West 3.5 mph - N/A   Clear
3:35 PM 81.5 °F 49.6 °F 33% 30.17 in 10.0 mi WSW 8.1 mph - N/A   Scattered Clouds
3:55 PM 83.5 °F 49.5 °F 31% 30.17 in 10.0 mi WSW 9.2 mph - N/A   Scattered Clouds
4:15 PM 82.9 °F 50.5 °F 32% 30.17 in 10.0 mi WSW 8.1 mph - N/A   Clear
4:35 PM 82.8 °F 50.9 °F 33% 30.18 in 10.0 mi WSW 9.2 mph - N/A   Clear
4:55 PM 82.4 °F 51.1 °F 34% 30.17 in 10.0 mi West 6.9 mph - N/A   Clear
5:15 PM 82.0 °F 50.9 °F 34% 30.17 in 10.0 mi West 5.8 mph - N/A   Scattered Clouds
5:35 PM 81.7 °F 50.4 °F 34% 30.17 in 10.0 mi WSW 4.6 mph - N/A   Clear
5:55 PM 81.5 °F 50.9 °F 34% 30.16 in 10.0 mi WSW 5.8 mph - N/A   Clear
6:15 PM 81.0 °F 50.7 °F 35% 30.15 in 10.0 mi WSW 5.8 mph - N/A   Clear
6:35 PM 80.2 °F 50.9 °F 36% 30.15 in 10.0 mi WSW 4.6 mph - N/A   Clear
6:55 PM 79.3 °F 50.9 °F 37% 30.15 in 10.0 mi WSW 4.6 mph - N/A   Clear
7:15 PM 78.3 °F 52.9 °F 41% 30.14 in 10.0 mi Calm Calm - N/A   Clear
7:35 PM 76.6 °F 54.1 °F 46% 30.14 in 10.0 mi Calm Calm - N/A   Clear
7:55 PM 71.4 °F 56.8 °F 60% 30.15 in 10.0 mi Calm Calm - N/A   Clear
8:15 PM 66.0 °F 57.0 °F 73% 30.15 in 10.0 mi Calm Calm - N/A   Clear
8:35 PM 63.5 °F 57.4 °F 80% 30.15 in 7.0 mi Calm Calm - N/A   Clear
8:55 PM 61.3 °F 56.5 °F 84% 30.16 in 10.0 mi Calm Calm - N/A   Clear
9:15 PM 60.8 °F 59.7 °F 96% 30.16 in 10.0 mi Calm Calm - N/A   Clear
9:35 PM 57.9 °F 56.1 °F 94% 30.16 in 10.0 mi Calm Calm - N/A   Clear
9:55 PM 57.7 °F 57.2 °F 98% 30.16 in 10.0 mi Calm Calm - N/A   Clear
10:15 PM 56.3 °F 55.9 °F 99% 30.16 in 10.0 mi Calm Calm - N/A   Clear
10:35 PM 55.6 °F 54.9 °F 97% 30.16 in 10.0 mi Calm Calm - N/A   Clear
10:55 PM 54.7 °F 54.7 °F 100% 30.16 in 10.0 mi Calm Calm - N/A   Clear
11:15 PM 54.5 °F 54.3 °F 99% 30.17 in 10.0 mi Calm Calm - N/A   Clear
11:35 PM 53.2 °F 53.2 °F 100% 30.16 in 10.0 mi Calm Calm - N/A   Clear
11:55 PM 52.5 °F 51.8 °F 97% 30.17 in 7.0 mi Calm Calm - N/A   Clear